Wind_Speed
11 9 7 6 7 5 4 4 7 11 13 13 13 14 14 11 12 11 19 17 16 14 14 13 14 17 19 21 21 22 21 22 21 22 23 21 24 28 28 26 25 22 21 20 19 18 15 20 24
12 9 6 7 4 4 4 6 6 7 10 13 15 16 14 15 17 19 18 19 19 16 16 15 16 17 20 22 24 24 23 23 23 22 22 23 23 24 27 27 26 25 23 22 21 19 17 22 24
11 9 6 3 4 4 2 7 7 8 9 12 16 16 14 20 15 17 17 15 17 18 17 17 18 20 21 23 25 26 25 25 26 26 27 25 24 25 26 27 28 28 26 24 23 21 19 22 28
11 9 5 4 4 7 5 7 8 8 10 12 15 10 18 16 21 20 19 18 20 20 19 20 19 19 21 24 26 29 29 28 27 29 29 28 27 24 27 29 28 29 29 26 25 23 21 24 29
9 8 4 5 6 8 8 11 12 14 14 15 16 18 16 19 19 20 19 18 18 20 21 22 21 21 21 23 25 27 30 31 31 30 30 29 27 28 27 28 30 31 30 28 27 26 24 25 32
8 7 5 4 8 9 8 12 14 13 14 18 17 15 14 16 18 20 20 20 18 19 20 22 23 23 23 25 25 26 27 30 32 30 30 30 31 30 30 30 30 34 33 30 29 27 26 28 34
6 5 4 7 7 9 11 13 12 14 15 16 18 17 18 19 18 17 19 18 19 19 20 21 23 25 24 26 27 25 26 29 29 28 28 29 31 31 32 31 32 31 33 32 30 28 28 32 33
8 5 2 5 6 7 12 15 13 16 14 15 16 16 21 19 14 15 20 18 16 18 20 21 22 24 26 27 27 27 25 27 30 29 29 29 28 31 32 31 31 29 30 34 31 32 30 35 40
11 10 5 4 5 9 12 17 16 18 19 17 19 17 19 19 19 25 26 24 21 22 20 21 23 24 27 28 28 29 27 27 29 30 29 29 28 30 32 32 30 29 28 31 30 32 34 35 40
14 17 12 10 6 8 12 17 18 19 19 16 13 18 17 18 21 29 30 31 28 31 28 24 21 23 26 29 29 30 29 28 30 31 30 31 29 30 32 33 31 30 27 28 33 36 35 39 44
18 16 14 15 12 12 16 14 21 18 12 16 20 9 19 24 28 31 31 34 34 30 31 33 32 30 27 29 31 30 31 30 32 32 32 34 32 31 33 33 33 31 31 31 37 59 40 38 44
18 14 18 19 16 12 14 18 17 10 13 18 18 21 31 29 29 33 37 37 36 37 37 38 41 41 37 32 32 32 33 32 33 34 34 36 36 35 36 37 36 33 34 38 42 33 24 34 42
13 18 18 18 12 14 14 18 14 12 17 23 25 27 29 32 35 35 36 37 39 42 40 38 41 44 44 42 37 34 33 34 34 36 36 37 39 37 38 38 38 35 37 38 41 42 38 27 29
23 19 14 13 18 21 19 19 10 20 25 27 32 36 36 38 37 35 33 33 33 36 38 36 35 39 41 45 44 38 36 35 38 38 37 38 39 39 39 39 38 37 37 38 41 35 27 25 25
22 19 18 19 24 18 27 17 21 15 39 39 31 33 37 35 33 32 31 32 34 37 37 39 38 41 46 46 44 43 40 38 39 40 39 40 40 39 39 39 40 38 38 39 37 40 24 40 23
27 20 23 20 19 24 26 22 17 39 47 33 35 26 26 27 27 31 35 35 33 35 40 37 36 36 38 41 45 47 45 42 40 42 44 42 41 41 40 41 41 41 40 40 42 43 38 35 36
21 21 26 30 31 18 27 29 29 38 35 34 24 26 25 24 29 33 30 28 28 28 29 37 33 30 32 36 39 47 49 47 43 42 47 46 44 44 42 41 41 41 43 43 41 34 29 30 33
23 22 27 33 30 40 27 28 41 38 32 29 24 18 20 25 30 33 33 31 30 31 33 35 33 30 25 23 25 35 47 49 41 44 48 48 47 47 45 42 42 43 43 46 45 43 38 38 36
24 29 33 33 37 31 31 35 32 20 24 31 20 18 26 30 35 37 42 44 44 46 44 39 41 45 39 34 28 20 28 36 44 46 45 50 50 50 49 46 44 44 47 45 45 45 34 33 40
22 29 31 34 28 42 42 27 13 15 24 11 17 26 33 39 42 44 48 52 58 62 63 62 62 58 52 48 41 30 22 33 36 41 45 50 54 51 52 50 46 45 48 49 48 45 42 42 43
24 30 30 34 41 33 23 22 8 17 7 17 31 35 31 38 43 57 61 66 68 68 66 64 65 62 49 52 53 45 26 25 37 41 43 54 56 53 53 52 47 46 49 50 45 49 48 50 50
25 23 24 32 40 30 28 12 13 10 18 32 34 30 35 39 54 55 62 59 63 67 66 58 47 48 40 37 43 40 47 38 25 40 40 47 55 59 52 53 49 46 51 54 50 45 53 44 55
20 23 26 38 47 25 9 9 6 9 25 30 30 36 45 50 54 55 53 54 52 52 53 55 48 40 35 31 36 37 38 47 35 29 40 45 50 45 57 52 51 49 52 53 54 47 52 53 49
20 24 33 23 22 6 10 5 14 21 12 21 29 40 45 56 51 52 51 57 59 56 55 53 45 41 40 37 32 38 39 41 51 41 40 36 48 49 56 52 56 52 52 53 53 52 56 48 48
14 21 11 6 3 6 7 17 17 13 13 23 29 43 57 50 51 56 59 65 65 64 59 53 46 42 39 39 37 33 40 40 44 46 46 45 42 55 62 57 56 56 54 54 54 55 49 49 51
14 4 4 7 6 19 32 8 4 14 18 22 42 53 49 50 60 64 66 67 54 60 63 57 56 47 40 40 40 36 38 40 41 46 55 50 33 48 53 55 58 56 55 53 55 54 50 52 50
8 8 13 10 13 9 10 8 18 17 16 36 44 49 47 57 66 68 66 68 74 73 74 64 54 48 43 39 40 36 40 41 40 41 50 61 45 30 59 53 62 52 56 56 56 51 55 51 53
13 14 4 5 4 7 14 28 13 19 36 52 60 53 59 67 71 69 70 75 84 85 76 64 50 42 40 40 39 38 41 41 39 43 48 52 59 34 35 61 59 60 57 60 59 58 57 51 51
15 12 11 8 7 4 7 14 17 29 30 53 49 54 61 70 70 73 77 82 89 84 72 65 58 49 40 36 37 40 42 42 39 44 42 56 51 59 37 57 56 66 59 61 61 59 53 58 53
16 17 20 6 7 14 15 28 20 22 43 41 43 47 64 68 69 76 84 89 85 73 66 60 52 48 42 38 40 40 43 44 40 39 44 52 48 53 54 49 68 60 64 61 64 62 58 65 58
Wind_Direction
24 35 53 92 52 63 43 23 13 0 355 352 350 344 333 352 330 300 316 310 311 307 306 287 269 265 257 250 249 255 255 251 252 250 249 250 248 246 241 238 241 238 238 243 248 256 244 219 212
9 25 50 74 50 53 48 5 359 340 341 345 342 346 344 348 333 320 321 313 315 313 307 299 286 267 262 259 257 254 254 254 249 247 247 244 244 245 244 240 239 239 238 238 244 248 237 220 210
356 7 48 36 31 44 15 355 354 341 347 347 340 347 345 346 343 341 332 317 315 312 304 297 286 276 271 263 258 260 257 251 250 246 246 248 244 244 244 242 240 241 238 238 239 241 231 222 214
356 3 22 44 30 16 32 3 360 350 350 347 340 355 346 351 343 339 332 314 308 308 306 302 294 281 269 266 268 260 257 254 250 250 248 246 246 243 242 244 242 240 240 236 238 235 230 222 216
354 357 350 358 10 7 1 358 354 351 350 345 345 343 356 348 346 345 339 333 322 311 304 300 297 293 284 275 267 264 261 252 251 251 250 249 245 243 241 240 240 240 240 238 237 234 228 223 220
351 347 326 337 351 354 351 344 345 344 343 340 339 334 343 345 344 339 337 333 330 318 308 299 294 289 288 283 276 268 258 253 247 249 253 251 248 243 240 239 238 239 237 239 237 235 228 219 224
335 342 318 323 335 353 337 339 344 338 342 337 340 334 334 334 336 334 334 331 326 325 315 302 293 290 286 282 281 273 260 245 246 245 245 247 246 237 238 241 240 238 238 237 236 233 230 221 222
335 332 323 327 337 351 332 328 333 344 347 343 337 334 324 317 317 322 322 309 313 318 317 308 294 284 281 278 277 274 263 249 241 241 240 240 243 241 237 237 241 237 237 236 235 233 229 222 221
339 342 315 358 338 331 328 322 324 337 341 337 318 308 311 302 293 295 305 300 284 286 291 296 297 292 284 281 277 273 267 253 243 240 239 237 239 239 236 236 237 238 234 232 231 230 224 222 219
351 345 331 331 310 323 332 324 329 333 344 337 321 312 306 295 295 292 292 299 289 286 275 273 274 282 281 276 275 273 267 257 243 240 241 235 236 237 235 233 230 230 228 226 232 230 226 225 219
339 333 324 325 327 335 340 331 328 345 352 341 333 290 329 292 285 297 293 296 291 287 279 271 271 267 262 267 270 268 267 260 247 243 242 237 237 235 232 228 226 229 231 223 216 226 218 220 218
332 336 328 326 332 344 349 328 336 352 355 339 332 294 301 303 284 291 292 291 287 281 279 274 265 265 260 256 257 261 261 259 250 244 244 241 239 234 234 234 235 235 234 228 224 207 208 190 207
331 334 327 328 338 339 340 331 355 339 351 329 310 295 294 296 298 298 296 295 297 296 291 278 268 261 262 257 250 250 255 255 253 245 242 242 237 235 231 237 238 233 233 233 233 243 251 237 222
324 324 325 328 319 327 328 321 334 330 332 324 306 304 301 302 302 301 302 298 294 292 289 283 271 262 261 261 254 244 245 248 249 244 241 240 239 237 236 235 236 233 230 234 236 236 231 229 221
322 320 324 323 326 318 325 316 329 312 326 322 308 301 302 301 303 307 310 305 298 296 297 292 284 273 267 261 255 243 238 239 245 244 240 238 240 237 238 234 233 234 230 230 229 231 235 234 206
325 319 320 314 319 322 319 310 319 324 331 314 319 315 313 312 313 316 310 304 298 293 291 299 302 298 274 261 256 244 237 235 237 241 238 237 237 238 234 234 232 234 230 227 230 235 236 225 216
315 312 315 317 318 313 324 312 312 323 319 322 319 316 313 306 308 303 298 299 300 299 295 293 300 298 294 274 259 248 238 235 233 237 236 236 235 236 235 235 232 231 230 228 225 225 230 220 214
306 308 307 312 316 314 323 318 315 319 318 317 312 304 297 301 306 306 302 299 297 297 298 292 291 296 299 305 287 260 242 238 232 233 232 233 233 232 235 233 232 230 231 228 227 230 231 222 201
298 294 303 309 311 315 320 319 322 312 313 306 288 303 305 307 305 308 309 307 302 301 296 294 301 296 295 295 299 303 250 247 242 234 233 227 231 230 233 233 234 229 230 231 226 223 213 209 205
300 297 304 310 312 318 324 324 319 305 301 279 315 316 310 309 311 313 309 307 307 307 307 310 307 301 296 289 287 288 295 248 250 235 235 230 229 232 230 232 232 231 229 230 229 213 202 200 204
298 298 301 305 315 316 313 317 303 302 266 308 313 308 310 313 318 321 319 317 317 318 318 317 313 312 309 299 292 281 266 281 249 241 241 236 231 230 230 230 230 230 226 230 229 209 207 198 199
295 294 289 303 312 310 311 287 301 217 300 307 304 304 310 315 315 317 313 311 313 314 316 318 314 306 308 302 294 290 285 270 272 245 257 234 231 224 225 226 229 227 225 226 229 229 207 213 215
282 285 290 300 298 302 308 244 235 261 300 296 299 311 316 322 317 316 315 320 317 314 312 313 314 299 309 303 285 280 274 277 261 275 245 241 231 234 225 226 230 225 225 225 227 224 215 213 214
280 287 297 299 292 258 162 360 274 297 282 298 308 316 316 318 323 321 320 318 320 318 316 312 306 305 301 304 301 277 268 268 262 255 263 244 238 230 225 227 227 226 225 224 224 221 225 220 213
284 313 320 307 284 282 209 322 287 263 295 314 317 312 325 329 327 329 327 326 326 326 320 318 311 305 299 294 297 282 265 262 259 262 258 247 238 230 228 221 224 224 222 223 224 222 224 215 214
293 268 244 278 302 295 303 226 248 251 298 297 315 326 331 331 334 333 332 335 334 333 329 323 317 311 301 291 290 286 267 265 256 251 259 257 241 238 228 234 223 221 221 222 222 218 223 215 217
283 259 267 256 276 283 265 264 299 269 277 318 330 329 331 335 336 333 335 331 330 327 323 319 310 301 292 289 282 280 274 272 263 245 251 256 235 233 232 229 227 224 221 221 220 217 222 221 207
241 268 243 197 279 289 285 299 270 311 314 325 329 332 333 337 336 332 330 331 331 329 325 320 311 296 286 280 278 274 271 268 269 250 244 248 253 230 225 230 230 218 223 219 219 217 227 217 225
255 221 211 209 235 264 295 293 304 311 325 325 327 330 332 336 333 334 333 334 332 329 324 318 311 301 284 271 267 267 266 268 261 267 247 243 245 245 239 223 221 214 216 218 217 218 215 220 217
240 225 216 216 244 234 275 278 296 324 318 326 323 326 331 335 334 335 338 335 331 325 320 315 307 296 285 273 265 253 262 267 261 265 258 236 244 242 232 218 222 218 218 216 213 216 218 214 214
Height
3156 3153 3152 3151 3156 3153 3153 3154 3151 3149 3148 3146 3144 3143 3142 3140 3138 3140 3134 3130 3128 3128 3126 3126 3126 3126 3126 3127 3127 3127 3127 3127 3128 3128 3129 3130 3130 3132 3132 3133 3135 3135 3136 3137 3138 3138 3139 3140 3142
3156 3155 3153 3152 3155 3152 3153 3151 3150 3149 3147 3145 3143 3140 3138 3138 3136 3133 3131 3127 3126 3124 3123 3122 3123 3123 3122 3122 3122 3122 3123 3123 3123 3124 3124 3125 3126 3127 3128 3129 3130 3131 3132 3133 3134 3135 3136 3138 3140
3156 3155 3154 3152 3152 3152 3153 3150 3149 3148 3146 3143 3140 3139 3138 3137 3134 3131 3129 3126 3124 3121 3120 3119 3117 3118 3118 3118 3117 3117 3118 3118 3119 3119 3120 3121 3121 3122 3124 3125 3125 3127 3127 3129 3130 3131 3133 3135 3137
3156 3155 3154 3154 3152 3152 3151 3150 3148 3146 3145 3142 3139 3138 3137 3136 3132 3129 3126 3124 3123 3121 3117 3115 3114 3113 3113 3112 3113 3112 3112 3113 3113 3114 3114 3115 3117 3118 3119 3121 3121 3122 3123 3124 3125 3126 3129 3131 3133
3155 3154 3153 3152 3152 3151 3149 3149 3147 3146 3144 3141 3139 3138 3136 3133 3131 3127 3124 3121 3119 3117 3115 3112 3110 3109 3107 3107 3106 3106 3107 3107 3107 3108 3109 3110 3111 3112 3114 3115 3116 3117 3118 3119 3120 3122 3124 3127 3130
3153 3153 3153 3153 3152 3151 3150 3148 3146 3145 3142 3139 3138 3135 3134 3130 3127 3124 3121 3117 3115 3113 3110 3109 3107 3104 3103 3102 3100 3100 3100 3100 3101 3102 3103 3104 3105 3106 3107 3109 3110 3112 3113 3114 3116 3118 3120 3122 3125
3151 3151 3151 3149 3148 3148 3148 3146 3145 3143 3141 3138 3135 3133 3132 3128 3125 3121 3118 3115 3112 3108 3107 3105 3103 3102 3098 3097 3095 3094 3093 3094 3094 3096 3098 3099 3099 3101 3102 3102 3104 3105 3107 3108 3111 3112 3115 3118 3120
3149 3147 3147 3146 3146 3146 3144 3141 3141 3140 3140 3137 3133 3131 3128 3124 3121 3117 3114 3111 3107 3104 3102 3099 3098 3096 3094 3092 3090 3089 3088 3087 3088 3090 3091 3092 3094 3094 3095 3097 3098 3099 3101 3103 3104 3106 3109 3111 3113
3148 3148 3147 3147 3146 3145 3142 3140 3139 3139 3136 3133 3129 3127 3123 3119 3115 3111 3106 3105 3101 3098 3095 3093 3091 3089 3088 3087 3085 3084 3083 3081 3082 3083 3085 3086 3087 3088 3089 3091 3092 3094 3095 3097 3097 3099 3100 3104 3108
3148 3146 3143 3142 3142 3143 3141 3138 3136 3136 3133 3128 3126 3123 3118 3114 3107 3103 3102 3100 3097 3094 3090 3084 3081 3082 3081 3080 3079 3078 3077 3077 3076 3077 3079 3079 3081 3082 3083 3085 3086 3088 3090 3091 3093 3090 3094 3097 3101
3145 3143 3140 3139 3139 3139 3139 3137 3133 3131 3128 3123 3119 3116 3113 3107 3104 3101 3096 3092 3088 3087 3085 3081 3077 3073 3071 3071 3071 3071 3071 3072 3072 3072 3072 3073 3074 3075 3077 3079 3080 3082 3084 3086 3090 3072 3083 3089 3095
3142 3140 3137 3136 3135 3135 3136 3133 3131 3127 3125 3121 3115 3110 3105 3103 3099 3094 3090 3085 3081 3078 3075 3073 3070 3066 3065 3063 3061 3064 3063 3065 3065 3067 3067 3067 3068 3070 3070 3072 3074 3076 3078 3079 3073 3066 3073 3076 3083
3139 3138 3134 3133 3131 3131 3132 3129 3125 3122 3120 3115 3110 3105 3102 3097 3092 3089 3084 3078 3073 3068 3065 3064 3061 3059 3057 3055 3053 3053 3055 3056 3058 3058 3061 3061 3062 3064 3065 3066 3068 3069 3070 3072 3073 3070 3072 3072 3080
3135 3133 3132 3129 3126 3126 3128 3125 3121 3118 3114 3109 3101 3096 3090 3087 3083 3077 3075 3071 3066 3061 3055 3054 3052 3048 3047 3044 3044 3043 3045 3047 3049 3050 3052 3054 3055 3057 3059 3060 3062 3062 3064 3066 3067 3068 3067 3069 3073
3130 3129 3129 3125 3125 3121 3118 3121 3115 3111 3106 3102 3096 3091 3085 3080 3076 3070 3067 3063 3058 3053 3048 3043 3042 3041 3037 3034 3033 3033 3033 3035 3036 3040 3043 3045 3047 3049 3051 3053 3055 3057 3058 3060 3062 3063 3065 3066 3073
3127 3123 3122 3124 3121 3120 3118 3115 3113 3105 3098 3087 3084 3080 3078 3075 3069 3066 3062 3058 3053 3050 3045 3039 3033 3031 3027 3024 3024 3022 3021 3022 3025 3028 3032 3035 3038 3040 3043 3045 3048 3050 3053 3054 3056 3058 3060 3063 3069
3124 3120 3117 3114 3114 3114 3113 3110 3106 3098 3089 3083 3077 3073 3071 3068 3065 3061 3056 3052 3048 3043 3038 3035 3029 3023 3018 3013 3010 3010 3009 3010 3012 3016 3020 3024 3028 3031 3034 3037 3040 3044 3046 3047 3050 3051 3056 3059 3062
3120 3116 3112 3110 3109 3105 3108 3105 3099 3092 3083 3076 3072 3070 3068 3064 3058 3053 3049 3046 3041 3038 3033 3027 3022 3017 3011 3006 3000 2997 2997 2998 2999 3003 3007 3013 3017 3021 3024 3027 3031 3035 3038 3040 3042 3045 3050 3054 3059
3118 3114 3108 3106 3103 3097 3103 3097 3094 3084 3079 3073 3068 3065 3061 3057 3052 3047 3040 3036 3030 3026 3022 3019 3013 3007 3003 2998 2994 2990 2987 2989 2989 2989 2994 2998 3005 3010 3014 3018 3022 3025 3028 3033 3035 3037 3040 3044 3049
3116 3110 3106 3101 3097 3092 3090 3087 3082 3078 3071 3067 3065 3062 3055 3050 3046 3040 3036 3030 3019 3012 3006 3002 2998 2995 2991 2987 2983 2981 2978 2976 2978 2980 2982 2986 2991 2999 3003 3007 3013 3017 3020 3022 3026 3025 3031 3037 3044
3113 3108 3104 3097 3091 3091 3085 3083 3080 3071 3067 3063 3060 3056 3051 3046 3038 3030 3024 3016 3007 3000 2992 2990 2985 2980 2977 2973 2968 2968 2966 2966 2964 2968 2968 2974 2979 2984 2991 2996 3002 3007 3010 3014 3018 3019 3025 3031 3036
3108 3105 3100 3095 3089 3083 3089 3077 3075 3068 3063 3057 3051 3048 3044 3040 3035 3028 3019 3010 3002 2993 2986 2979 2974 2970 2964 2960 2956 2953 2952 2951 2952 2952 2958 2962 2966 2970 2971 2983 2990 2996 3001 3005 3009 3014 3018 3023 3029
3105 3101 3098 3093 3083 3078 3078 3077 3067 3064 3058 3053 3048 3044 3041 3036 3031 3021 3012 3004 2996 2987 2978 2970 2964 2958 2955 2950 2946 2941 2938 2939 2939 2940 2938 2949 2954 2953 2964 2957 2976 2984 2991 2995 3000 3005 3009 3016 3023
3101 3097 3093 3084 3078 3072 3069 3072 3060 3058 3054 3048 3045 3039 3036 3030 3019 3012 3005 2995 2985 2977 2968 2958 2951 2945 2942 2938 2934 2930 2926 2924 2926 2928 2928 2931 2941 2945 2951 2957 2965 2973 2980 2985 2992 2998 3001 3007 3014
3098 3095 3090 3080 3073 3065 3064 3063 3060 3050 3048 3044 3039 3033 3029 3019 3009 3002 2991 2981 2971 2961 2953 2945 2938 2933 2930 2927 2923 2919 2915 2913 2912 2914 2916 2917 2922 2931 2936 2941 2952 2960 2967 2975 2982 2987 2993 2998 3006
3092 3093 3095 3089 3077 3060 3059 3053 3048 3047 3044 3039 3034 3026 3019 3010 3002 2991 2980 2970 2959 2951 2943 2936 2928 2919 2916 2914 2911 2907 2904 2900 2900 2902 2900 2901 2903 2915 2923 2928 2937 2947 2955 2963 2971 2979 2986 2989 2998
3089 3089 3088 3085 3082 3074 3051 3047 3045 3038 3037 3031 3025 3015 3007 2999 2990 2978 2969 2959 2950 2938 2928 2920 2912 2905 2901 2899 2896 2895 2891 2889 2888 2889 2888 2890 2893 2895 2907 2917 2921 2933 2942 2952 2959 2967 2975 2982 2990
3084 3085 3084 3085 3080 3070 3044 3043 3042 3034 3029 3021 3009 3002 2993 2985 2974 2964 2954 2945 2931 2919 2906 2898 2894 2888 2885 2883 2882 2880 2877 2875 2872 2872 2876 2878 2878 2884 2886 2903 2909 2921 2931 2940 2949 2959 2965 2973 2981
3075 3075 3076 3078 3078 3070 3055 3032 3035 3030 3024 3015 3004 2996 2986 2979 2967 2955 2942 2930 2914 2897 2885 2877 2872 2869 2867 2866 2865 2865 2863 2861 2861 2859 2862 2865 2867 2871 2876 2886 2898 2907 2919 2929 2938 2948 2957 2965 2973
3066 3066 3066 3069 3068 3063 3058 3025 3025 3022 3019 3009 2998 2989 2981 2971 2958 2944 2927 2910 2897 2881 2869 2860 2852 2848 2847 2848 2848 2847 2848 2846 2847 2846 2848 2853 2854 2860 2864 2871 2883 2895 2907 2917 2927 2936 2945 2955 2961